Date,TemperatureHighF,TemperatureAvgF,TemperatureLowF,DewpointHighF,DewpointAvgF,DewpointLowF,HumidityHigh,HumidityAvg,HumidityLow,PressureMaxIn,PressureMinIn,WindSpeedMaxMPH,WindSpeedAvgMPH,GustSpeedMaxMPH,PrecipitationSumIn
2013-1-1,35,24,9,28,17,5,87,75,62,30.05,29.83,8,4,18,0.01
2013-1-2,25,18,10,21,13,6,90,79,68,30.26,30.00,7,4,10,0.00
2013-1-3,29,20,8,25,15,5,87,81,72,30.25,30.00,5,2,11,0.00
2013-1-4,36,32,28,26,23,20,80,70,56,30.01,29.88,11,6,19,0.00
2013-1-5,36,32,27,27,24,21,83,73,60,30.29,30.01,9,3,16,0.00
2013-1-6,40,35,28,32,29,24,90,79,68,30.08,29.89,6,3,13,0.00
2013-1-7,35,27,19,32,22,16,93,82,67,30.40,30.06,7,3,11,0.00
2013-1-8,39,27,18,24,20,14,90,76,53,30.34,30.19,7,2,7,0.00
2013-1-9,50,34,16,37,26,14,94,74,59,30.32,29.96,9,4,15,0.00
2013-1-10,42,36,30,31,28,26,90,73,60,30.59,30.33,7,2,12,0.00
2013-1-11,42,38,33,36,32,28,87,79,67,30.45,29.92,13,9,18,0.10
2013-1-12,53,44,38,47,41,36,94,89,81,30.03,29.97,8,5,9,0.00
2013-1-13,59,55,51,52,50,48,90,83,77,29.88,29.77,12,6,13,0.00
2013-1-14,53,38,30,49,30,21,91,75,61,30.37,29.73,10,4,14,0.00
2013-1-15,34,30,28,24,21,19,80,71,55,30.40,30.20,4,2,7,0.00
2013-1-16,38,32,27,30,26,23,93,80,61,30.20,29.78,7,2,11,0.00
2013-1-17,36,26,17,29,19,12,88,74,60,30.19,29.85,12,4,15,0.00
2013-1-18,30,21,10,16,11,6,91,68,48,30.43,30.08,10,4,15,0.00
2013-1-19,50,42,30,32,25,17,68,50,38,30.07,29.61,9,4,16,0.00
2013-1-20,48,35,19,36,20,8,73,57,42,30.07,29.44,9,6,17,0.00
2013-1-21,22,19,15,14,10,6,80,66,58,30.06,29.87,6,2,9,0.00
2013-1-22,15,11,7,7,-2,-6,69,55,42,30.20,29.90,10,6,15,0.00
2013-1-23,10,6,-2,5,0,-6,87,75,61,30.25,30.15,8,3,11,0.00
2013-1-24,14,6,-4,9,0,-8,86,77,60,30.53,30.14,9,3,14,0.00
2013-1-25,16,11,2,10,6,0,89,81,71,30.51,30.11,5,2,8,0.00
2013-1-26,23,11,-2,15,7,-5,91,82,61,30.41,30.12,5,1,9,0.00
2013-1-27,28,20,12,16,14,9,92,78,60,30.58,30.41,5,1,7,0.01
2013-1-28,42,31,21,41,28,15,97,86,66,30.41,29.87,10,5,14,0.17
2013-1-29,50,40,32,48,39,31,97,96,94,30.07,29.79,12,4,13,0.37
2013-1-30,64,56,49,56,51,47,95,81,67,29.78,29.04,16,9,20,0.00
2013-1-31,55,32,22,52,23,11,91,68,51,29.69,29.00,15,9,34,0.25
2013-2-1,23,20,16,16,12,8,90,71,55,30.20,29.70,9,5,13,0.00
2013-2-2,21,17,10,16,10,5,90,74,59,30.21,29.99,9,4,12,0.00
2013-2-3,28,17,6,18,11,3,92,78,46,29.99,29.79,6,2,10,0.00
2013-2-4,23,20,16,13,10,6,81,67,48,29.95,29.86,8,4,14,0.00
2013-2-5,26,21,14,19,15,9,88,78,65,29.99,29.86,6,2,9,0.00
2013-2-6,27,23,12,24,16,9,91,73,52,30.40,29.88,9,4,16,0.00
2013-2-7,31,23,10,22,14,7,89,71,56,30.47,30.13,11,5,14,0.00
2013-2-8,36,30,20,31,26,18,95,84,59,30.13,29.79,12,6,17,0.00
2013-2-9,20,17,10,18,15,7,92,91,89,30.43,30.03,2,1,4,0.00
2013-2-10,34,20,-3,23,13,-7,93,77,55,30.44,30.03,13,5,15,0.00
2013-2-11,46,38,34,38,29,22,85,71,57,30.04,29.58,14,9,20,0.08
2013-2-12,36,34,31,29,26,23,88,74,63,29.96,29.70,10,6,21,0.00
2013-2-13,39,30,21,26,23,18,91,75,53,29.92,29.72,5,1,7,0.00
2013-2-14,39,32,22,34,27,20,93,82,61,29.94,29.80,8,3,10,0.09
2013-2-15,39,35,26,34,25,16,91,68,54,30.06,29.79,9,4,13,0.01
2013-2-16,28,24,20,20,16,12,82,72,59,30.06,29.94,6,2,9,0.00
2013-2-17,21,16,12,15,9,3,87,76,61,30.18,29.91,10,5,17,0.00
2013-2-18,31,20,11,18,12,7,86,69,53,30.32,29.99,8,4,14,0.00
2013-2-19,40,34,26,34,25,17,92,70,53,29.99,29.57,13,7,17,0.05
2013-2-20,26,23,20,20,14,10,86,70,54,30.06,29.77,11,7,19,0.00
2013-2-21,21,18,14,16,12,7,89,79,70,30.45,30.03,9,5,17,0.00
2013-2-22,35,27,16,27,21,14,92,80,65,30.42,30.06,13,6,21,0.00
2013-2-23,40,35,32,34,30,26,91,81,74,30.06,29.88,12,5,18,0.04
2013-2-24,33,31,30,27,25,22,87,77,68,30.05,29.85,8,3,14,0.00
2013-2-25,38,33,26,29,27,23,94,79,56,30.24,30.06,6,2,10,0.00
2013-2-26,42,33,23,32,28,22,96,81,59,30.25,29.88,14,6,18,0.02
2013-2-27,39,34,32,36,32,31,96,94,88,29.87,29.56,10,3,11,0.93
2013-2-28,40,36,32,33,32,31,95,87,71,29.70,29.54,5,2,9,0.26
2013-3-1,33,30,27,31,27,22,95,88,79,29.91,29.70,8,4,13,0.03
2013-3-2,27,24,23,25,21,19,92,86,77,29.93,29.86,6,4,9,0.00
2013-3-3,25,23,21,21,18,16,90,83,71,29.89,29.84,6,3,10,0.00
2013-3-4,30,26,22,22,19,16,84,76,65,30.03,29.88,9,6,14,0.00
2013-3-5,31,27,20,24,21,17,91,80,71,30.11,29.99,8,2,12,0.01
2013-3-6,40,32,18,32,27,16,94,83,69,30.14,29.97,11,4,12,0.00
2013-3-7,37,33,31,32,29,25,91,82,70,30.26,30.13,8,3,12,0.00
2013-3-8,39,32,24,27,24,22,93,75,53,30.39,30.24,11,4,16,0.00
2013-3-9,49,34,23,32,27,21,94,76,48,30.41,30.25,5,1,7,0.00
2013-3-10,60,46,30,34,30,25,86,55,34,30.25,30.00,11,7,15,0.00
2013-3-11,54,50,47,37,32,28,54,49,45,30.02,29.73,16,8,20,0.00
2013-9-21,60,59,55,59,58,53,97,96,93,29.68,29.61,3,2,10,0.52
2013-9-22,55,52,49,53,47,43,94,81,65,29.99,29.69,7,3,9,0.00
2013-9-23,56,50,40,45,43,39,97,78,61,30.13,29.99,6,2,9,0.00
2013-9-24,63,50,38,49,44,37,98,81,51,30.12,30.00,5,1,6,0.00
2013-9-25,68,53,40,54,47,39,97,82,51,30.00,29.93,4,1,6,0.01
2013-9-26,68,53,41,56,49,40,98,86,62,30.14,29.99,5,1,8,0.00
2013-9-27,68,54,42,58,50,42,98,88,64,30.25,30.14,4,1,5,0.01
2013-9-28,71,57,44,59,52,43,98,84,56,30.30,30.17,8,3,10,0.01
2013-9-29,73,59,46,58,51,45,98,79,53,30.18,29.99,8,3,10,0.00
2013-9-30,76,61,51,64,56,49,96,82,60,30.01,29.92,5,1,5,0.00
2013-10-1,75,65,56,62,58,54,98,82,54,30.00,29.90,4,1,7,0.00
2013-10-2,76,64,53,65,59,52,98,83,58,30.05,29.89,5,1,5,0.00
2013-10-3,72,60,48,56,52,46,98,79,40,30.11,30.01,3,0,4,0.01
2013-10-4,68,62,58,66,60,55,97,95,87,30.04,29.97,3,1,4,0.60
2013-10-5,64,61,59,61,59,58,98,95,89,30.08,30.02,4,1,4,0.00
2013-10-6,81,69,60,73,65,58,99,89,72,30.02,29.76,11,4,14,1.13
2013-10-7,71,62,52,66,56,46,96,81,58,29.99,29.60,11,4,13,0.81
2013-10-8,60,50,43,50,46,42,98,86,58,30.29,30.00,4,1,6,0.00
2013-10-9,60,50,44,47,45,43,95,85,61,30.30,30.29,0,0,0,0.00
2013-10-10,63,50,39,52,46,38,98,87,61,30.29,30.16,3,1,4,0.01
2013-10-11,68,53,44,54,48,43,98,86,55,30.16,30.10,2,0,4,0.00
2013-10-12,73,54,38,53,45,38,98,77,30,30.20,30.12,7,2,9,0.01
2013-10-13,70,61,48,60,55,46,95,81,65,30.28,30.20,8,3,10,0.23
2013-10-14,61,57,50,58,55,48,97,93,80,30.31,30.24,4,1,4,0.41
2013-10-15,66,55,45,58,52,45,98,90,75,30.28,29.97,7,2,8,0.01
2013-10-16,62,59,56,58,54,50,95,84,68,29.97,29.76,8,4,8,0.26
2013-10-17,65,56,47,54,51,46,97,82,59,29.87,29.64,3,1,5,0.55
2013-10-18,60,53,47,52,46,40,97,78,54,29.90,29.69,7,3,11,0.22
2013-10-19,63,54,46,49,45,41,89,73,51,29.89,29.63,10,4,11,0.10
2013-10-20,54,47,42,44,41,38,90,80,64,29.99,29.73,5,2,11,0.02
2013-10-21,66,55,44,44,42,39,93,64,37,29.99,29.77,8,4,9,0.00
2013-10-22,57,47,39,49,39,31,95,74,50,29.84,29.72,7,3,13,0.06
2013-10-23,48,40,35,39,36,32,94,82,69,29.82,29.67,3,1,11,0.00
2013-10-24,50,40,34,36,33,30,92,75,48,29.99,29.78,9,4,11,0.12
2013-10-25,48,42,36,40,37,34,94,83,68,30.17,30.00,4,2,8,0.02
2013-10-26,48,44,40,36,32,28,86,62,51,30.13,29.79,8,4,13,0.00
2013-10-27,49,43,38,37,35,33,89,75,59,30.06,29.80,5,2,8,0.00
2013-10-28,48,42,27,40,34,25,94,74,55,30.39,30.03,7,2,11,0.00
2013-10-29,46,34,22,33,27,21,96,80,51,30.47,30.31,3,1,4,0.00
2013-10-30,56,43,36,42,38,32,95,82,56,30.30,30.13,5,1,5,0.02
2013-10-31,62,54,36,58,51,35,96,90,84,30.11,29.45,9,5,10,0.56
2013-11-1,64,59,48,59,50,42,91,73,51,29.66,29.20,12,7,13,0.11
2013-11-2,52,46,38,47,43,36,95,90,76,29.96,29.59,8,2,8,0.46
2013-11-3,38,34,29,36,28,23,93,78,59,30.53,29.96,6,3,9,0.03
2013-11-4,41,33,20,28,23,19,96,70,45,30.67,30.49,8,2,9,0.00
2013-11-5,54,45,37,38,30,23,66,55,47,30.50,30.34,10,7,11,0.00
2013-11-6,61,54,47,52,46,38,82,72,62,30.34,29.81,12,8,18,0.00
2013-11-7,59,45,38,54,40,31,95,82,63,29.96,29.77,8,3,14,0.46
2013-11-8,41,38,34,34,30,27,87,75,57,30.21,29.92,8,4,9,0.01
2013-11-9,48,42,31,37,32,27,90,68,56,30.21,29.78,10,4,13,0.00
2013-11-10,52,44,40,42,37,31,95,76,63,30.11,29.76,10,5,15,0.15
2013-11-11,47,38,30,37,32,28,95,79,55,30.15,29.91,9,4,10,0.05
2013-11-12,31,28,25,28,23,20,94,82,67,30.37,30.09,8,5,13,0.00
2013-11-13,38,30,21,26,20,14,93,68,49,30.44,30.11,6,3,8,0.01
2013-11-14,54,42,34,28,20,15,60,43,27,30.12,30.01,6,3,9,0.00
2013-11-15,53,46,36,33,25,19,69,45,33,30.11,30.05,5,2,7,0.00
2013-11-16,58,47,33,40,35,28,83,64,48,30.25,30.08,7,2,8,0.00
2013-11-17,59,54,49,55,50,41,91,84,74,30.07,29.38,13,9,17,0.11
2013-11-18,60,48,37,55,38,27,93,67,54,29.85,29.35,18,8,21,0.32
2013-11-19,37,35,28,31,27,23,84,73,64,30.44,29.86,10,5,15,0.00
2013-11-20,37,29,22,23,21,17,90,71,51,30.61,30.44,5,2,8,0.00
2013-11-21,44,38,30,36,26,16,86,61,50,30.50,30.28,10,6,13,0.00
2013-11-22,48,42,35,47,40,30,96,93,79,30.27,29.96,9,3,10,0.28
2013-11-23,37,29,19,29,22,9,93,76,57,30.16,29.97,10,6,13,0.00
2013-11-24,23,19,16,18,14,9,92,82,61,30.40,30.14,8,5,12,0.00
2013-11-25,36,27,18,19,15,10,82,61,37,30.41,30.13,8,4,12,0.00
2013-11-26,37,34,32,31,28,22,96,81,63,30.17,29.83,7,3,11,0.00
2013-11-27,34,30,22,32,28,18,97,92,79,29.85,29.58,8,4,16,0.07
2013-11-28,28,23,18,20,17,14,90,79,60,30.43,29.86,7,3,9,0.00
2013-11-29,28,20,7,21,15,5,93,81,60,30.76,30.44,7,1,7,0.00
2013-11-30,32,21,3,22,14,0,92,76,60,30.76,30.24,12,6,17,0.00
2013-12-1,38,33,30,32,27,22,95,80,70,30.24,29.97,7,4,8,0.10
2013-12-2,39,35,33,35,33,31,96,91,83,29.97,29.86,3,1,3,0.01
2013-12-3,39,32,24,32,28,23,96,86,66,30.01,29.90,3,0,3,0.00
2013-12-4,47,37,27,40,34,26,95,90,76,30.05,29.95,6,3,7,0.01
2013-12-5,58,51,42,53,46,37,90,83,66,29.97,29.74,11,7,13,0.00
2013-12-6,41,34,30,37,29,24,95,83,72,30.23,29.97,4,2,8,0.31
2013-12-7,31,28,25,27,20,15,87,71,56,30.55,30.22,7,4,11,0.00
2013-12-8,28,25,20,23,16,13,91,69,56,30.59,30.27,9,3,11,0.00
2013-12-9,41,34,25,35,29,23,92,81,70,30.25,29.85,14,7,21,0.03
2013-12-10,34,26,20,25,18,10,91,70,61,30.06,29.92,8,4,12,0.00
2013-12-11,25,21,15,19,14,9,88,74,62,30.26,30.06,6,4,8,0.00
2013-12-12,20,16,11,13,9,6,88,75,61,30.33,30.05,6,3,12,0.00
2013-12-13,25,19,14,20,14,8,90,80,69,30.40,30.03,9,4,12,0.00
2013-12-14,23,12,7,21,9,-1,93,85,68,30.48,29.80,13,6,16,0.00
2013-12-15,26,22,16,22,18,10,94,87,64,29.84,29.62,9,4,14,0.00
2013-12-16,23,14,-6,14,8,-9,90,79,63,30.21,29.84,8,3,16,0.00
2013-12-17,29,16,-10,24,13,-14,94,87,80,30.19,29.93,10,3,10,0.00
2013-12-18,31,28,22,25,22,20,94,80,67,30.08,29.93,5,2,9,0.00
2013-12-19,44,34,26,31,26,19,90,72,58,30.06,29.91,7,3,9,0.06
2013-12-20,46,40,33,41,37,31,97,89,76,30.00,29.78,4,1,5,0.06
2013-12-21,47,40,32,46,39,31,98,96,94,29.87,29.74,6,3,7,0.88
2013-12-22,44,35,31,43,34,30,98,96,89,29.97,29.60,6,2,8,0.27
2013-12-23,42,36,28,38,33,24,97,88,66,30.24,29.95,7,2,10,0.02
2013-12-24,28,20,11,24,17,7,94,87,78,30.48,30.21,8,3,10,0.00
2013-12-25,24,14,2,15,8,0,91,78,65,30.55,30.26,7,4,11,0.00
2013-12-26,34,28,24,28,20,15,88,74,67,30.26,30.06,8,5,13,0.00
2013-12-27,32,27,22,28,22,15,94,81,69,30.29,30.13,6,2,13,0.00
2013-12-28,45,35,24,35,29,23,95,80,61,30.11,29.95,5,1,9,0.00
2013-12-29,44,37,29,39,33,27,96,87,68,29.95,29.63,6,2,7,0.23
2013-12-30,34,20,14,31,14,9,92,80,73,30.24,29.73,8,4,11,0.00
2013-12-31,25,18,15,18,10,4,83,71,57,30.25,29.99,11,5,12,0.00
2014-1-1,22,17,13,13,10,6,88,73,57,30.42,30.26,5,3,7,0.00
2014-1-2,13,10,5,11,7,3,90,89,86,30.33,30.00,11,6,11,0.00